New Roads False River Regiona, LA

1:37 PM CST on December 05, 2019 (GMT -0600)
False River

Weather History for KHZR - June, 2019

Change the Weather History Date:

Monday, June 10, 2019

  Actual Average (WUND) Record (WUND)
Temperature  
Mean Temperature 81 °F -  
Max Temperature 89 °F - - (-1)
Min Temperature 73 °F - - (-1)
Cooling Degree Days 16    
Growing Degree Days 31 (Base 50)    
Moisture  
Dew Point 72 °F    
Average Humidity 75    
Maximum Humidity 100    
Minimum Humidity 55    
Precipitation  
Precipitation 0.00 in - - ()
Sea Level Pressure  
Sea Level Pressure 30.03 in    
Wind  
Wind Speed 5 mph ()    
Max Wind Speed 17 mph    
Max Gust Speed 20 mph    
Visibility 9.9 miles    
Events      
Averages and records for this station are not official NWS values.
T = Trace of Precipitation, MM = Missing Value Source: Averaged Metar Reports

Daily Weather History Graph

Daily Weather History Graph

Search for Another Location

Airport or City:

Astronomy

Jun. 10, 2019 Rise Set
Actual Time 6:02 AM CDT 8:08 PM CDT
Civil Twilight 5:34 AM CDT 8:36 PM CDT
Nautical Twilight 5:01 AM CDT 9:09 PM CDT
Astronomical Twilight 4:25 AM CDT 9:45 PM CDT
Moon 1:31 PM CDT (6/10) 1:40 AM CDT (6/10)
Length of Visible Light 15h 01m
Length of Day
14h 05m
First Quarter, 55% of the Moon is Illuminated
Jun 10
First Quarter
Jun 17
Full
Jun 25
Last Quarter
Jul 2
New
Jul 9
First Quarter

Hourly Weather History & Observations

Time (CDT) Temp. Heat Index Dew Point Humidity Pressure Visibility Wind Dir Wind Speed Gust Speed Precip Events Conditions
12:14 AM 75.2 °F - 73.4 °F 94% 29.98 in 10.0 mi Calm Calm - N/A   Clear
12:54 AM 75.2 °F - 73.4 °F 94% 29.98 in 10.0 mi Calm Calm - N/A   Clear
1:14 AM 75.2 °F - 73.4 °F 94% 29.98 in 10.0 mi Calm Calm - N/A   Scattered Clouds
1:56 AM 75.2 °F - 73.4 °F 94% 29.96 in 10.0 mi Calm Calm - N/A   Clear
2:14 AM 73.4 °F - 73.4 °F 100% 29.96 in 10.0 mi Calm Calm - N/A   Clear
2:34 AM 73.4 °F - 73.4 °F 100% 29.96 in 10.0 mi NW 3.5 mph - N/A   Clear
3:14 AM 73.4 °F - 71.6 °F 94% 29.96 in 10.0 mi NNW 3.5 mph - N/A   Clear
3:35 AM 73.4 °F - 71.6 °F 94% 29.97 in 10.0 mi North 3.5 mph - N/A   Clear
3:54 AM 73.4 °F - 71.6 °F 94% 29.97 in 10.0 mi NNW 3.5 mph - N/A   Clear
4:34 AM 73.4 °F - 71.6 °F 94% 29.98 in 10.0 mi NNW 3.5 mph - N/A   Clear
4:54 AM 73.4 °F - 73.4 °F 100% 29.99 in 10.0 mi Calm Calm - N/A   Clear
7:14 AM 75.2 °F - 73.4 °F 94% 30.03 in 10.0 mi NNW 3.5 mph - N/A   Clear
7:36 AM 77.0 °F - 73.4 °F 89% 30.04 in 10.0 mi NNW 5.8 mph - N/A   Mostly Cloudy
8:14 AM 78.8 °F - 73.4 °F 83% 30.05 in 10.0 mi NNW 8.1 mph - N/A   Scattered Clouds
8:54 AM 80.6 °F 85.4 °F 73.4 °F 79% 30.05 in 10.0 mi NNW 5.8 mph - N/A   Clear
9:14 AM 80.6 °F 85.4 °F 73.4 °F 79% 30.06 in 10.0 mi NW 8.1 mph - N/A   Clear
9:34 AM 80.6 °F 85.4 °F 73.4 °F 79% 30.05 in 10.0 mi NW 5.8 mph - N/A   Clear
9:56 AM 82.4 °F 88.2 °F 73.4 °F 74% 30.06 in 10.0 mi NW 8.1 mph - N/A   Clear
10:16 AM 82.4 °F 88.2 °F 73.4 °F 74% 30.06 in 10.0 mi WNW 4.6 mph - N/A   Scattered Clouds
11:14 AM 84.2 °F 92.3 °F 75.2 °F 74% 30.06 in 7.0 mi NNW 4.6 mph - N/A   Scattered Clouds
11:34 AM 84.2 °F 92.3 °F 75.2 °F 74% 30.06 in 10.0 mi NNW 6.9 mph - N/A   Scattered Clouds
11:54 AM 84.2 °F 92.3 °F 75.2 °F 74% 30.06 in 10.0 mi WNW 8.1 mph - N/A   Scattered Clouds
12:14 PM 86.0 °F 95.1 °F 75.2 °F 70% 30.06 in 10.0 mi NNW 9.2 mph - N/A   Mostly Cloudy
12:34 PM 84.2 °F 90.9 °F 73.4 °F 70% 30.06 in 10.0 mi NW 8.1 mph - N/A   Mostly Cloudy
12:56 PM 86.0 °F 95.1 °F 75.2 °F 70% 30.05 in 10.0 mi NNW 10.4 mph - N/A   Scattered Clouds
2:34 PM 87.8 °F 95.6 °F 73.4 °F 62% 30.04 in 10.0 mi NW 10.4 mph 17.3 mph N/A   Scattered Clouds
2:54 PM 87.8 °F 95.6 °F 73.4 °F 62% 30.03 in 10.0 mi NNW 11.5 mph 18.4 mph N/A   Clear
3:37 PM 89.6 °F 98.2 °F 73.4 °F 59% 30.03 in 10.0 mi NNW 12.7 mph 18.4 mph N/A   Scattered Clouds
3:56 PM 87.8 °F 93.8 °F 71.6 °F 58% 30.03 in 10.0 mi NNW 15.0 mph 18.4 mph N/A   Scattered Clouds
4:14 PM 89.6 °F 96.2 °F 71.6 °F 55% 30.02 in 10.0 mi North 15.0 mph 18.4 mph N/A   Scattered Clouds
4:34 PM 87.8 °F 93.8 °F 71.6 °F 58% 30.02 in 10.0 mi NNW 15.0 mph 18.4 mph N/A   Clear
4:56 PM 87.8 °F 93.8 °F 71.6 °F 58% 30.01 in 10.0 mi NNW 12.7 mph 17.3 mph N/A   Clear
5:14 PM 87.8 °F 93.8 °F 71.6 °F 58% 30.00 in 10.0 mi NNW 17.3 mph - N/A   Clear
5:34 PM 87.8 °F 92.6 °F 69.8 °F 55% 30.01 in 10.0 mi NNW 12.7 mph 19.6 mph N/A   Clear
5:56 PM 87.8 °F 93.8 °F 71.6 °F 58% 30.00 in 10.0 mi North 12.7 mph 18.4 mph N/A   Clear
6:14 PM 86.0 °F 90.4 °F 69.8 °F 58% 30.01 in 10.0 mi NNW 10.4 mph 17.3 mph N/A   Clear
6:34 PM 86.0 °F 91.8 °F 71.6 °F 62% 30.01 in 10.0 mi North 13.8 mph - N/A   Clear
6:55 PM 84.2 °F 89.6 °F 71.6 °F 66% 30.02 in 10.0 mi North 12.7 mph 17.3 mph N/A   Clear
7:15 PM 84.2 °F 89.6 °F 71.6 °F 66% 30.02 in 10.0 mi NNW 9.2 mph - N/A   Clear
7:35 PM 82.4 °F 87.2 °F 71.6 °F 70% 30.03 in 10.0 mi North 9.2 mph - N/A   Clear
8:16 PM 80.6 °F 83.9 °F 69.8 °F 70% 30.04 in 10.0 mi North 8.1 mph - N/A   Clear
8:34 PM 80.6 °F 83.9 °F 69.8 °F 70% 30.05 in 10.0 mi North 8.1 mph - N/A   Clear
8:54 PM 78.8 °F - 71.6 °F 78% 30.05 in 10.0 mi North 5.8 mph - N/A   Clear
9:36 PM 78.8 °F - 69.8 °F 74% 30.07 in 10.0 mi North 8.1 mph - N/A   Clear
9:56 PM 77.0 °F - 69.8 °F 78% 30.08 in 10.0 mi North 6.9 mph - N/A   Clear
11:14 PM 75.2 °F - 66.2 °F 73% 30.10 in 10.0 mi North 6.9 mph - N/A   Clear
11:34 PM 75.2 °F - 64.4 °F 69% 30.10 in 10.0 mi North 8.1 mph - N/A   Clear
11:54 PM 75.2 °F - 64.4 °F 69% 30.10 in 10.0 mi North 9.2 mph - N/A   Clear